{"data":{"norad_id":56368,"intl_designator":"2023-059B","name":"O3B MPOWER F3","alt_names":[],"object_type":"PAYLOAD","status":"ACTIVE","operator":null,"country":"O3B","launch_date":"2023-04-28","launch_site_code":"AFETR","launch_vehicle":null,"mission":null,"orbit_class":"UNKNOWN","rcs_meters":null,"size_class":null,"mass_kg":null,"dimensions":null,"purposes":["comms"],"wikipedia_slug":null,"has_3d_model":false,"image_url":null,"decayed_at":null,"tle_current":{"epoch":"2026-05-24T19:41:26.126592Z","epoch_age_seconds":90316,"freshness":"FRESH","line1":"1 56368U 23059B   26144.82044128 -.00000024  00000+0  00000+0 0  9998","line2":"2 56368   0.0653 358.2204 0006713  65.4198 296.4280  5.00116536 53565","mean_motion":5.00116536,"eccentricity":0.0006713,"inclination_deg":0.0653,"raan_deg":358.2204,"arg_perigee_deg":65.4198,"mean_anomaly_deg":296.428,"bstar":0,"rev_number":5356,"period_min":287.93289090525,"perigee_km":8056.1740088332,"apogee_km":8075.5665329951,"semimajor_km":14444.007270914,"source":"CELESTRAK","updated_at":"2026-05-25T13:38:14.519369Z"}}}